Preview of NWS' New Version of Forecast
This preview is not operational and should not be used for support decisions.

Regional Weather Roundup (RWR)

Issued by National Weather Service (NWS)

                            
000
ASUS43 KDMX 212301
RWRIA 

WEATHER ROUNDUP FOR IOWA
NATIONAL WEATHER SERVICE DES MOINES IA
600 PM CDT SUN APR 21 2019

NOTE: "FAIR" INDICATES FEW OR NO CLOUDS BELOW 12,000 FEET WITH NO
SIGNIFICANT WEATHER AND/OR OBSTRUCTIONS TO VISIBILITY.

* - THESE STATIONS ARE NOT NWS STATIONS...THUS NOT UNDER NWS
QUALITY CONTROL.  THEY ALSO DO NOT REPORT WEATHER SUCH 
AS PRECIPITATION OR FOG.  

IAZ001>003-012>014-020>022-031>034-043>046-220000-
   NORTHWEST IOWA
  
CITY           SKY/WX    TMP DP  RH WIND       PRES   REMARKS
CARROLL *      CLOUDY    86  54  32 S18       29.70S HX  84           
CHEROKEE *     CLOUDY    79  50  36 E10       29.70F                  
DENISON *      CLOUDY    82  48  30 S21G32    29.70R HX  81           
LE MARS *      CLOUDY    77  48  36 CALM      29.69F                  
SHELDON *      CLOUDY    75  52  43 W6        29.71S                  
SIOUX CITY     MOSUNNY   80  54  40 N10       29.66F HX  80           
SPENCER        CLOUDY    76  52  43 SW8       29.74R                  
STORM LAKE *   CLOUDY    81  50  34 SE14      29.68F HX  80           
$$
 
IAZ055>058-069>071-079>083-090>094-220000-
   SOUTHWEST IOWA
  
CITY           SKY/WX    TMP DP  RH WIND       PRES   REMARKS
ATLANTIC *     MOSUNNY   84  46  26 S24G33    29.69R HX  82           
AUDUBON *      MOSUNNY   84  43  23 CALM      29.72R HX  82           
CLARINDA *     MOSUNNY   84  46  26 S25G37    29.72S HX  82           
COUNCIL BLFS * MOSUNNY   82  50  32 S15G29    29.67R HX  81           
CRESTON *      SUNNY     81  46  30 S21G41    29.74R HX  80           
HARLAN  *      CLOUDY    82  48  30 S26G35    29.68R HX  81           
RED OAK *      MOSUNNY   84  48  28 S25G36    29.69S HX  82           
SHENANDOAH *   MOSUNNY   84  48  28 S29G43    29.67S HX  82           
$$
 
IAZ047>049-059>061-072>074-084-220000-
   CENTRAL IOWA
  
CITY           SKY/WX    TMP DP  RH WIND       PRES   REMARKS
AMES           CLOUDY    78  49  35 S22G30    29.75S                  
ANKENY *       CLOUDY    81  50  34 S15G26    29.76S HX  80           
BOONE *        CLOUDY    79  48  34 S21G28    29.74R                  
CHARITON *     SUNNY     81  50  34 S16G24    29.77F HX  80           
DES MOINES     CLOUDY    79  48  33 S20G28    29.75S                  
GRINNELL*      CLOUDY    77  45  32 SE15      29.81S                  
KNOXVILLE *    PTSUNNY   79  45  29 SE15G29   29.77F                  
MARSHALLTOWN   CLOUDY    78  49  35 S18G30    29.77R                  
NEWTON *       MOSUNNY   81  46  30 S20G29    29.78S HX  80           
PELLA *        MOSUNNY   79  41  25 S21G28    29.80F                  
PERRY *        FAIR      83  45  26 S24G32    29.72S HX  81           
$$
 
IAZ004>006-015-016-023>025-035-036-220000-
   NORTH CENTRAL IOWA
  
CITY           SKY/WX    TMP DP  RH WIND       PRES   REMARKS
ALGONA *       CLOUDY    75  52  43 S14       29.75R                  
CLARION *      CLOUDY    77  48  36 S14G21    29.76R                  
ESTHERVILLE    CLOUDY    74  50  42 S14       29.73S                  
FORT DODGE *   CLOUDY    78  51  38 S15       29.76R                  
MASON CITY     CLOUDY    76  52  43 SW7       29.78R                  
FOREST CITY *  FAIR      73  50  43 S6        29.78R                  
IOWA FALLS *   FAIR      79  48  33 S18G25    29.79R                  
$$

IAZ007>011-017>019-026>030-037>042-050>054-066-220000-
   NORTHEAST IOWA
  
CITY           SKY/WX    TMP DP  RH WIND       PRES   REMARKS
CEDAR RAPIDS   FAIR      79  46  31 S16G29    29.82S                  
CHARLES CITY * FAIR      79  48  34 S16G23    29.78R                  
CLINTON *      FAIR      79  47  32 S17       29.89S                  
DECORAH *      FAIR      81  45  28 S12G25    29.80R                  
DUBUQUE        FAIR      79  46  31 S17       29.86R                  
MONTICELLO *   FAIR      81  45  28 S21G28    29.84S                  
OELWEIN *      FAIR      81  48  32 S22G30    29.82R HX  80           
WATERLOO       FAIR      81  47  30 S18G35    29.78R HX  80           
$$
 
IAZ064-065-067-068-078-220000-
   EAST CENTRAL IOWA
  
CITY           SKY/WX    TMP DP  RH WIND       PRES   REMARKS
DAVENPORT      FAIR      81  42  25 S21G31    29.89S                  
IOWA CITY      FAIR      79  45  29 S16G26    29.86R                  
MT. PLEASANT * MOSUNNY   81  48  32 S15G21    29.87S HX  80           
MUSCATINE *    FAIR      79  43  27 S18G24    29.87R                  
QUAD CITIES    FAIR      82  44  26 S16G25    29.87S HX  80           
$$
 
IAZ062-063-075>077-085>089-095>099-220000-
   SOUTHEAST IOWA
  
CITY           SKY/WX    TMP DP  RH WIND       PRES   REMARKS
BURLINGTON     MOSUNNY   78  47  33 S15       29.89R                  
FAIRFIELD *    CLOUDY    79  43  27 S15G22    29.84S                  
FORT MADISON * PTSUNNY   79  48  34 S12G22    29.89S                  
KEOKUK *       CLOUDY    77  46  33 SE8G17    29.88S                  
OSKALOOSA *    FAIR      79  42  27 S13       29.83S                  
CENTERVILLE *  FAIR      79  45  29 S17G25    29.82F                  
OTTUMWA        MOSUNNY   80  46  30 S16       29.83R                  
WASHINGTON *   MOSUNNY   81  45  28 S16G26    29.85S                  
$$

ABBREVIATIONS USED IN REMARKS
   TC - TEMPERATURES IN CELSIUS
  WCI - WIND CHILL INDEX
   HX - HEAT INDEX
  VSB - VISIBILITY  
$$